date,time,SUV Intensity [MED/Hr],UV Index,Daily total [MED],Since Last [MED]
30/07/2023,23:59:32,-0.001,0.0,5.738,5.738
31/07/2023,00:00:33,0.000,0.0,0.0,-5.738
31/07/2023,00:01:33,0.000,0.0,0.0,0.0
31/07/2023,00:02:33,0.000,0.0,0.0,0.0
31/07/2023,00:03:33,-0.000,0.0,0.0,0.0
31/07/2023,00:04:33,0.001,0.0,0.0,0.0
31/07/2023,00:05:33,0.000,0.0,0.0,0.0
31/07/2023,00:06:33,0.000,0.0,0.0,0.0
31/07/2023,00:07:33,-0.000,0.0,0.0,0.0
31/07/2023,00:08:33,0.000,0.0,0.0,0.0
31/07/2023,00:09:33,0.000,0.0,0.0,0.0
31/07/2023,00:10:33,-0.001,0.0,0.0,0.0
31/07/2023,00:11:33,0.000,0.0,0.0,0.0
31/07/2023,00:12:33,0.000,0.0,0.0,0.0
31/07/2023,00:13:33,-0.000,0.0,0.0,0.0
31/07/2023,00:14:33,-0.000,0.0,0.0,0.0
31/07/2023,00:15:33,0.000,0.0,0.0,0.0
31/07/2023,00:16:33,0.001,0.0,0.0,0.0
31/07/2023,00:17:33,0.001,0.0,0.0,0.0
31/07/2023,00:18:33,-0.001,0.0,0.0,0.0
31/07/2023,00:19:33,0.001,0.0,0.0,0.0
31/07/2023,00:20:33,0.000,0.0,0.0,0.0
31/07/2023,00:21:33,0.000,0.0,0.0,0.0
31/07/2023,00:22:33,0.000,0.0,0.0,0.0
31/07/2023,00:23:33,-0.000,0.0,0.0,0.0
31/07/2023,00:24:33,0.000,0.0,0.0,0.0
31/07/2023,00:25:33,-0.000,0.0,0.0,0.0
31/07/2023,00:26:33,0.001,0.0,0.0,0.0
31/07/2023,00:27:34,0.000,0.0,0.0,0.0
31/07/2023,00:28:35,-0.000,0.0,0.0,0.0
31/07/2023,00:29:33,0.000,0.0,0.0,0.0
31/07/2023,00:30:33,0.000,0.0,0.0,0.0
31/07/2023,00:31:33,0.000,0.0,0.0,0.0
31/07/2023,00:32:33,0.000,0.0,0.0,0.0
31/07/2023,00:33:33,0.000,0.0,0.0,0.0
31/07/2023,00:34:33,-0.000,0.0,0.0,0.0
31/07/2023,00:35:33,-0.000,0.0,0.0,0.0
31/07/2023,00:36:33,-0.001,0.0,0.0,0.0
31/07/2023,00:37:34,-0.000,0.0,0.0,0.0
31/07/2023,00:38:34,-0.000,0.0,0.0,0.0
31/07/2023,00:39:33,-0.000,0.0,0.0,0.0
31/07/2023,00:40:34,0.000,0.0,0.0,0.0
31/07/2023,00:41:33,0.000,0.0,0.0,0.0
31/07/2023,00:42:33,-0.000,0.0,0.0,0.0
31/07/2023,00:43:33,-0.000,0.0,0.0,0.0
31/07/2023,00:44:33,-0.000,0.0,0.0,0.0
31/07/2023,00:45:33,-0.000,0.0,0.0,0.0
31/07/2023,00:46:33,0.001,0.0,0.0,0.0
31/07/2023,00:47:33,0.000,0.0,0.0,0.0
31/07/2023,00:48:33,-0.000,0.0,0.0,0.0
31/07/2023,00:49:33,-0.000,0.0,0.0,0.0
31/07/2023,00:50:34,0.000,0.0,0.0,0.0
31/07/2023,00:51:34,-0.000,0.0,0.0,0.0
31/07/2023,00:52:33,-0.001,0.0,0.0,0.0
31/07/2023,00:53:33,-0.000,0.0,0.0,0.0
31/07/2023,00:54:33,0.000,0.0,0.0,0.0
31/07/2023,00:55:33,0.001,0.0,0.0,0.0
31/07/2023,00:56:33,-0.001,0.0,0.0,0.0
31/07/2023,00:57:33,-0.000,0.0,0.0,0.0
31/07/2023,00:58:34,-0.000,0.0,0.0,0.0
31/07/2023,00:59:33,-0.000,0.0,0.0,0.0
31/07/2023,01:00:34,-0.001,0.0,0.0,0.0
31/07/2023,01:01:33,-0.001,0.0,0.0,0.0
31/07/2023,01:02:33,0.001,0.0,0.0,0.0
31/07/2023,01:03:33,-0.000,0.0,0.0,0.0
31/07/2023,01:04:33,-0.001,0.0,0.0,0.0
31/07/2023,01:05:33,-0.000,0.0,0.0,0.0
31/07/2023,01:06:37,-0.000,0.0,0.0,0.0
31/07/2023,01:07:34,-0.000,0.0,0.0,0.0
31/07/2023,01:08:33,-0.000,0.0,0.0,0.0
31/07/2023,01:09:33,-0.000,0.0,0.0,0.0
31/07/2023,01:10:33,0.000,0.0,0.0,0.0
31/07/2023,01:11:33,0.001,0.0,0.0,0.0
31/07/2023,01:12:34,-0.000,0.0,0.0,0.0
31/07/2023,01:13:33,-0.001,0.0,0.0,0.0
31/07/2023,01:14:33,-0.001,0.0,0.0,0.0
31/07/2023,01:15:33,-0.000,0.0,0.0,0.0
31/07/2023,01:16:33,-0.000,0.0,0.0,0.0
31/07/2023,01:17:33,-0.000,0.0,0.0,0.0
31/07/2023,01:18:32,-0.000,0.0,0.0,0.0
31/07/2023,01:19:33,-0.000,0.0,0.0,0.0
31/07/2023,01:20:34,-0.000,0.0,0.0,0.0
31/07/2023,01:21:33,0.000,0.0,0.0,0.0
31/07/2023,01:22:33,-0.000,0.0,0.0,0.0
31/07/2023,01:23:33,0.000,0.0,0.0,0.0
31/07/2023,01:24:33,-0.000,0.0,0.0,0.0
31/07/2023,01:25:33,-0.000,0.0,0.0,0.0
31/07/2023,01:26:33,0.001,0.0,0.0,0.0
31/07/2023,01:27:34,-0.000,0.0,0.0,0.0
31/07/2023,01:28:33,-0.001,0.0,0.0,0.0
31/07/2023,01:29:33,-0.000,0.0,0.0,0.0
31/07/2023,01:30:33,-0.001,0.0,0.0,0.0
31/07/2023,01:31:34,-0.000,0.0,0.0,0.0
31/07/2023,01:32:33,-0.000,0.0,0.0,0.0
31/07/2023,01:33:33,-0.001,0.0,0.0,0.0
31/07/2023,01:34:33,-0.000,0.0,0.0,0.0
31/07/2023,01:35:33,-0.000,0.0,0.0,0.0
31/07/2023,01:36:33,-0.001,0.0,0.0,0.0
31/07/2023,01:37:33,-0.000,0.0,0.0,0.0
31/07/2023,01:38:34,-0.000,0.0,0.0,0.0
31/07/2023,01:39:33,-0.001,0.0,0.0,0.0
31/07/2023,01:40:33,0.000,0.0,0.0,0.0
31/07/2023,01:41:33,-0.000,0.0,0.0,0.0
31/07/2023,01:42:33,0.001,0.0,0.0,0.0
31/07/2023,01:43:33,-0.000,0.0,0.0,0.0
31/07/2023,01:44:33,0.001,0.0,0.0,0.0
31/07/2023,01:45:33,-0.000,0.0,0.0,0.0
31/07/2023,01:46:33,0.001,0.0,0.0,0.0
31/07/2023,01:47:33,-0.000,0.0,0.0,0.0
31/07/2023,01:48:34,0.000,0.0,0.0,0.0
31/07/2023,01:49:33,-0.000,0.0,0.0,0.0
31/07/2023,01:50:33,-0.000,0.0,0.0,0.0
31/07/2023,01:51:33,0.000,0.0,0.0,0.0
31/07/2023,01:52:33,-0.000,0.0,0.0,0.0
31/07/2023,01:53:33,-0.000,0.0,0.0,0.0
31/07/2023,01:54:33,-0.000,0.0,0.0,0.0
31/07/2023,01:55:33,-0.000,0.0,0.0,0.0
31/07/2023,01:56:34,-0.000,0.0,0.0,0.0
31/07/2023,01:57:34,-0.001,0.0,0.0,0.0
31/07/2023,01:58:33,-0.001,0.0,0.0,0.0
31/07/2023,01:59:33,0.001,0.0,0.0,0.0
31/07/2023,02:00:33,-0.000,0.0,0.0,0.0
31/07/2023,02:01:33,-0.000,0.0,0.0,0.0
31/07/2023,02:02:33,-0.001,0.0,0.0,0.0
31/07/2023,02:03:33,-0.001,0.0,0.0,0.0
31/07/2023,02:04:33,0.000,0.0,0.0,0.0
31/07/2023,02:05:34,-0.001,0.0,0.0,0.0
31/07/2023,02:06:33,-0.001,0.0,0.0,0.0
31/07/2023,02:07:33,0.000,0.0,0.0,0.0
31/07/2023,02:08:33,-0.000,0.0,0.0,0.0
31/07/2023,02:09:33,0.000,0.0,0.0,0.0
31/07/2023,02:10:33,-0.001,0.0,0.0,0.0
31/07/2023,02:11:34,-0.000,0.0,0.0,0.0
31/07/2023,02:12:33,-0.001,0.0,0.0,0.0
31/07/2023,02:13:33,-0.000,0.0,0.0,0.0
31/07/2023,02:14:34,-0.000,0.0,0.0,0.0
31/07/2023,02:15:32,-0.001,0.0,0.0,0.0
31/07/2023,02:16:33,-0.002,0.0,0.0,0.0
31/07/2023,02:17:33,-0.001,0.0,0.0,0.0
31/07/2023,02:18:33,-0.000,0.0,0.0,0.0
31/07/2023,02:19:33,-0.001,0.0,0.0,0.0
31/07/2023,02:20:33,-0.001,0.0,0.0,0.0
31/07/2023,02:21:33,-0.000,0.0,0.0,0.0
31/07/2023,02:22:34,-0.000,0.0,0.0,0.0
31/07/2023,02:23:33,0.000,0.0,0.0,0.0
31/07/2023,02:24:33,0.001,0.0,0.0,0.0
31/07/2023,02:25:34,0.001,0.0,0.0,0.0
31/07/2023,02:26:33,-0.000,0.0,0.0,0.0
31/07/2023,02:27:33,-0.001,0.0,0.0,0.0
31/07/2023,02:28:33,-0.000,0.0,0.0,0.0
31/07/2023,02:29:34,-0.001,0.0,0.0,0.0
31/07/2023,02:30:33,-0.000,0.0,0.0,0.0
31/07/2023,02:31:33,-0.001,0.0,0.0,0.0
31/07/2023,02:32:33,0.000,0.0,0.0,0.0
31/07/2023,02:33:33,0.000,0.0,0.0,0.0
31/07/2023,02:34:34,-0.000,0.0,0.0,0.0
31/07/2023,02:35:33,-0.000,0.0,0.0,0.0
31/07/2023,02:36:33,-0.001,0.0,0.0,0.0
31/07/2023,02:37:34,-0.000,0.0,0.0,0.0
31/07/2023,02:38:33,-0.001,0.0,0.0,0.0
31/07/2023,02:39:33,-0.000,0.0,0.0,0.0
31/07/2023,02:40:34,-0.001,0.0,0.0,0.0
31/07/2023,02:41:33,-0.000,0.0,0.0,0.0
31/07/2023,02:42:33,-0.001,0.0,0.0,0.0
31/07/2023,02:43:34,-0.000,0.0,0.0,0.0
31/07/2023,02:44:33,-0.001,0.0,0.0,0.0
31/07/2023,02:45:33,-0.000,0.0,0.0,0.0
31/07/2023,02:46:33,-0.002,0.0,0.0,0.0
31/07/2023,02:47:34,-0.000,0.0,0.0,0.0
31/07/2023,02:48:33,-0.001,0.0,0.0,0.0
31/07/2023,02:49:33,-0.000,0.0,0.0,0.0
31/07/2023,02:50:34,0.000,0.0,0.0,0.0
31/07/2023,02:51:33,-0.000,0.0,0.0,0.0
31/07/2023,02:52:33,-0.001,0.0,0.0,0.0
31/07/2023,02:53:33,-0.001,0.0,0.0,0.0
31/07/2023,02:54:33,-0.000,0.0,0.0,0.0
31/07/2023,02:55:33,-0.001,0.0,0.0,0.0
31/07/2023,02:56:33,-0.001,0.0,0.0,0.0
31/07/2023,02:57:33,-0.000,0.0,0.0,0.0
31/07/2023,02:58:33,-0.000,0.0,0.0,0.0
31/07/2023,02:59:33,-0.000,0.0,0.0,0.0
31/07/2023,03:00:34,-0.001,0.0,0.0,0.0
31/07/2023,03:01:33,0.000,0.0,0.0,0.0
31/07/2023,03:02:34,-0.001,0.0,0.0,0.0
31/07/2023,03:03:33,-0.001,0.0,0.0,0.0
31/07/2023,03:04:33,-0.001,0.0,0.0,0.0
31/07/2023,03:05:34,-0.001,0.0,0.0,0.0
31/07/2023,03:06:33,-0.001,0.0,0.0,0.0
31/07/2023,03:07:33,-0.001,0.0,0.0,0.0
31/07/2023,03:08:33,-0.000,0.0,0.0,0.0
31/07/2023,03:09:33,-0.001,0.0,0.0,0.0
31/07/2023,03:10:33,-0.001,0.0,0.0,0.0
31/07/2023,03:11:33,-0.001,0.0,0.0,0.0
31/07/2023,03:12:33,-0.001,0.0,0.0,0.0
31/07/2023,03:13:33,-0.001,0.0,0.0,0.0
31/07/2023,03:14:34,0.000,0.0,0.0,0.0
31/07/2023,03:15:33,-0.000,0.0,0.0,0.0
31/07/2023,03:16:33,-0.000,0.0,0.0,0.0
31/07/2023,03:17:34,-0.001,0.0,0.0,0.0
31/07/2023,03:18:33,-0.001,0.0,0.0,0.0
31/07/2023,03:19:33,-0.000,0.0,0.0,0.0
31/07/2023,03:20:34,-0.000,0.0,0.0,0.0
31/07/2023,03:21:33,-0.001,0.0,0.0,0.0
31/07/2023,03:22:34,0.000,0.0,0.0,0.0
31/07/2023,03:23:34,-0.001,0.0,0.0,0.0
31/07/2023,03:24:33,0.000,0.0,0.0,0.0
31/07/2023,03:25:33,-0.001,0.0,0.0,0.0
31/07/2023,03:26:33,-0.001,0.0,0.0,0.0
31/07/2023,03:27:34,-0.001,0.0,0.0,0.0
31/07/2023,03:28:33,-0.001,0.0,0.0,0.0
31/07/2023,03:29:34,-0.001,0.0,0.0,0.0
31/07/2023,03:30:34,-0.001,0.0,0.0,0.0
31/07/2023,03:31:34,-0.001,0.0,0.0,0.0
31/07/2023,03:32:33,0.000,0.0,0.0,0.0
31/07/2023,03:33:34,-0.001,0.0,0.0,0.0
31/07/2023,03:34:33,0.000,0.0,0.0,0.0
31/07/2023,03:35:33,-0.001,0.0,0.0,0.0
31/07/2023,03:36:33,-0.000,0.0,0.0,0.0
31/07/2023,03:37:33,-0.001,0.0,0.0,0.0
31/07/2023,03:38:34,-0.000,0.0,0.0,0.0
31/07/2023,03:39:33,-0.001,0.0,0.0,0.0
31/07/2023,03:40:34,0.001,0.0,0.0,0.0
31/07/2023,03:41:34,-0.001,0.0,0.0,0.0
31/07/2023,03:42:33,-0.001,0.0,0.0,0.0
31/07/2023,03:43:33,0.000,0.0,0.0,0.0
31/07/2023,03:44:33,-0.000,0.0,0.0,0.0
31/07/2023,03:45:32,-0.000,0.0,0.0,0.0
31/07/2023,03:46:33,-0.001,0.0,0.0,0.0
31/07/2023,03:47:34,-0.001,0.0,0.0,0.0
31/07/2023,03:48:33,-0.001,0.0,0.0,0.0
31/07/2023,03:49:34,-0.001,0.0,0.0,0.0
31/07/2023,03:50:34,-0.001,0.0,0.0,0.0
31/07/2023,03:51:33,0.000,0.0,0.0,0.0
31/07/2023,03:52:33,-0.002,0.0,0.0,0.0
31/07/2023,03:53:33,0.001,0.0,0.0,0.0
31/07/2023,03:54:34,-0.000,0.0,0.0,0.0
31/07/2023,03:55:33,-0.000,0.0,0.0,0.0
31/07/2023,03:56:33,-0.000,0.0,0.0,0.0
31/07/2023,03:57:34,-0.000,0.0,0.0,0.0
31/07/2023,03:58:34,-0.000,0.0,0.0,0.0
31/07/2023,03:59:33,-0.000,0.0,0.0,0.0
31/07/2023,04:00:33,-0.000,0.0,0.0,0.0
31/07/2023,04:01:33,-0.000,0.0,0.0,0.0
31/07/2023,04:02:33,-0.000,0.0,0.0,0.0
31/07/2023,04:03:33,0.000,0.0,0.0,0.0
31/07/2023,04:04:33,-0.000,0.0,0.0,0.0
31/07/2023,04:05:33,-0.000,0.0,0.0,0.0
31/07/2023,04:06:34,-0.000,0.0,0.0,0.0
31/07/2023,04:07:33,-0.000,0.0,0.0,0.0
31/07/2023,04:08:34,0.000,0.0,0.0,0.0
31/07/2023,04:09:34,0.000,0.0,0.0,0.0
31/07/2023,04:10:33,0.000,0.0,0.0,0.0
31/07/2023,04:11:34,0.000,0.0,0.0,0.0
31/07/2023,04:12:33,0.001,0.0,0.0,0.0
31/07/2023,04:13:34,-0.001,0.0,0.0,0.0
31/07/2023,04:14:33,0.000,0.0,0.0,0.0
31/07/2023,04:15:34,0.001,0.0,0.0,0.0
31/07/2023,04:16:33,0.001,0.0,0.0,0.0
31/07/2023,04:17:33,0.000,0.0,0.0,0.0
31/07/2023,04:18:34,0.001,0.0,0.0,0.0
31/07/2023,04:19:34,0.001,0.0,0.0,0.0
31/07/2023,04:20:34,0.001,0.0,0.0,0.0
31/07/2023,04:21:33,0.001,0.0,0.0,0.0
31/07/2023,04:22:34,0.000,0.0,0.0,0.0
31/07/2023,04:23:34,0.001,0.0,0.0,0.0
31/07/2023,04:24:34,0.001,0.0,0.0,0.0
31/07/2023,04:25:34,0.001,0.0,0.0,0.0
31/07/2023,04:26:33,0.001,0.0,0.0,0.0
31/07/2023,04:27:33,0.002,0.0,0.0,0.0
31/07/2023,04:28:33,0.001,0.0,0.0,0.0
31/07/2023,04:29:34,0.001,0.0,0.0,0.0
31/07/2023,04:30:33,0.002,0.0,0.0,0.0
31/07/2023,04:31:33,0.001,0.0,0.0,0.0
31/07/2023,04:32:33,0.002,0.0,0.0,0.0
31/07/2023,04:33:33,0.002,0.0,0.0,0.0
31/07/2023,04:34:34,0.002,0.0,0.0,0.0
31/07/2023,04:35:33,0.001,0.0,0.0,0.0
31/07/2023,04:36:33,0.002,0.0,0.0,0.0
31/07/2023,04:37:33,0.002,0.0,0.0,0.0
31/07/2023,04:38:34,0.003,0.0,0.0,0.0
31/07/2023,04:39:33,0.002,0.0,0.0,0.0
31/07/2023,04:40:33,0.001,0.0,0.0,0.0
31/07/2023,04:41:33,0.003,0.0,0.0,0.0
31/07/2023,04:42:34,0.002,0.0,0.0,0.0
31/07/2023,04:43:34,0.004,0.0,0.0,0.0
31/07/2023,04:44:33,0.004,0.0,0.0,0.0
31/07/2023,04:45:34,0.005,0.0,0.0,0.0
31/07/2023,04:46:33,0.005,0.0,0.0,0.0
31/07/2023,04:47:33,0.004,0.0,0.0,0.0
31/07/2023,04:48:34,0.004,0.0,0.0,0.0
31/07/2023,04:49:33,0.005,0.0,0.0,0.0
31/07/2023,04:50:33,0.005,0.0,0.0,0.0
31/07/2023,04:51:34,0.005,0.0,0.0,0.0
31/07/2023,04:52:34,0.005,0.0,0.0,0.0
31/07/2023,04:53:33,0.006,0.0,0.0,0.0
31/07/2023,04:54:34,0.006,0.0,0.0,0.0
31/07/2023,04:55:33,0.005,0.0,0.0,0.0
31/07/2023,04:56:33,0.006,0.0,0.0,0.0
31/07/2023,04:57:38,0.006,0.0,0.0,0.0
31/07/2023,04:58:34,0.007,0.0,0.0,0.0
31/07/2023,04:59:33,0.006,0.0,0.0,0.0
31/07/2023,05:00:33,0.007,0.0,0.001,0.001
31/07/2023,05:01:33,0.007,0.0,0.001,0.0
31/07/2023,05:02:34,0.006,0.0,0.001,0.0
31/07/2023,05:03:34,0.009,0.0,0.001,0.0
31/07/2023,05:04:33,0.010,0.0,0.001,0.0
31/07/2023,05:05:33,0.009,0.0,0.001,0.0
31/07/2023,05:06:34,0.010,0.0,0.001,0.0
31/07/2023,05:07:34,0.010,0.0,0.002,0.001
31/07/2023,05:08:34,0.010,0.0,0.002,0.0
31/07/2023,05:09:33,0.012,0.0,0.002,0.0
31/07/2023,05:10:34,0.012,0.0,0.002,0.0
31/07/2023,05:11:33,0.009,0.0,0.002,0.0
31/07/2023,05:12:33,0.009,0.0,0.002,0.0
31/07/2023,05:13:35,0.009,0.0,0.003,0.001
31/07/2023,05:14:33,0.009,0.0,0.003,0.0
31/07/2023,05:15:33,0.009,0.0,0.003,0.0
31/07/2023,05:16:34,0.010,0.0,0.003,0.0
31/07/2023,05:17:33,0.012,0.0,0.003,0.0
31/07/2023,05:18:33,0.012,0.0,0.003,0.0
31/07/2023,05:19:34,0.014,0.0,0.004,0.001
31/07/2023,05:20:34,0.016,0.0,0.004,0.0
31/07/2023,05:21:33,0.015,0.0,0.004,0.0
31/07/2023,05:22:33,0.017,0.0,0.004,0.0
31/07/2023,05:23:34,0.017,0.0,0.005,0.001
31/07/2023,05:24:33,0.016,0.0,0.005,0.0
31/07/2023,05:25:33,0.017,0.0,0.005,0.0
31/07/2023,05:26:33,0.019,0.0,0.006,0.001
31/07/2023,05:27:34,0.021,0.0,0.006,0.0
31/07/2023,05:28:34,0.021,0.0,0.006,0.0
31/07/2023,05:29:33,0.021,0.0,0.007,0.001
31/07/2023,05:30:34,0.021,0.0,0.007,0.0
31/07/2023,05:31:34,0.024,0.0,0.007,0.0
31/07/2023,05:32:34,0.026,0.0,0.008,0.001
31/07/2023,05:33:34,0.026,0.0,0.008,0.0
31/07/2023,05:34:34,0.028,0.0,0.009,0.001
31/07/2023,05:35:34,0.030,0.0,0.009,0.0
31/07/2023,05:36:33,0.030,0.0,0.01,0.001
31/07/2023,05:37:34,0.034,0.0,0.01,0.0
31/07/2023,05:38:34,0.040,0.0,0.011,0.001
31/07/2023,05:39:33,0.040,0.0,0.011,0.0
31/07/2023,05:40:34,0.043,0.0,0.012,0.001
31/07/2023,05:41:33,0.043,0.0,0.013,0.001
31/07/2023,05:42:34,0.044,0.0,0.013,0.0
31/07/2023,05:43:34,0.043,0.0,0.014,0.001
31/07/2023,05:44:33,0.046,0.0,0.015,0.001
31/07/2023,05:45:34,0.046,0.0,0.016,0.001
31/07/2023,05:46:34,0.048,0.0,0.017,0.001
31/07/2023,05:47:34,0.048,0.0,0.017,0.0
31/07/2023,05:48:33,0.048,0.0,0.018,0.001
31/07/2023,05:49:34,0.049,0.0,0.019,0.001
31/07/2023,05:50:34,0.049,0.0,0.02,0.001
31/07/2023,05:51:34,0.051,0.0,0.021,0.001
31/07/2023,05:52:34,0.052,0.0,0.021,0.0
31/07/2023,05:53:34,0.052,0.0,0.022,0.001
31/07/2023,05:54:34,0.052,0.0,0.023,0.001
31/07/2023,05:55:34,0.051,0.0,0.024,0.001
31/07/2023,05:56:33,0.047,0.0,0.025,0.001
31/07/2023,05:57:34,0.043,0.0,0.026,0.001
31/07/2023,05:58:34,0.042,0.0,0.026,0.0
31/07/2023,05:59:33,0.046,0.0,0.027,0.001
31/07/2023,06:00:33,0.051,0.0,0.028,0.001
31/07/2023,06:01:33,0.055,0.0,0.029,0.001
31/07/2023,06:02:34,0.057,0.0,0.03,0.001
31/07/2023,06:03:33,0.058,0.0,0.031,0.001
31/07/2023,06:04:33,0.059,0.0,0.032,0.001
31/07/2023,06:05:34,0.058,0.0,0.033,0.001
31/07/2023,06:06:33,0.055,0.0,0.034,0.001
31/07/2023,06:07:33,0.053,0.0,0.034,0.0
31/07/2023,06:08:34,0.051,0.0,0.035,0.001
31/07/2023,06:09:33,0.047,0.0,0.036,0.001
31/07/2023,06:10:34,0.046,0.0,0.037,0.001
31/07/2023,06:11:34,0.049,0.0,0.038,0.001
31/07/2023,06:12:34,0.053,0.0,0.039,0.001
31/07/2023,06:13:33,0.058,0.0,0.039,0.0
31/07/2023,06:14:34,0.064,0.0,0.04,0.001
31/07/2023,06:15:33,0.069,0.0,0.042,0.002
31/07/2023,06:16:33,0.070,0.0,0.043,0.001
31/07/2023,06:17:34,0.070,0.0,0.044,0.001
31/07/2023,06:18:34,0.067,0.0,0.045,0.001
31/07/2023,06:19:33,0.064,0.0,0.046,0.001
31/07/2023,06:20:34,0.057,0.0,0.047,0.001
31/07/2023,06:21:33,0.052,0.0,0.048,0.001
31/07/2023,06:22:33,0.052,0.0,0.049,0.001
31/07/2023,06:23:34,0.055,0.0,0.05,0.001
31/07/2023,06:24:34,0.060,0.0,0.051,0.001
31/07/2023,06:25:34,0.066,0.0,0.052,0.001
31/07/2023,06:26:34,0.068,0.0,0.053,0.001
31/07/2023,06:27:33,0.068,0.0,0.054,0.001
31/07/2023,06:28:34,0.066,0.0,0.055,0.001
31/07/2023,06:29:33,0.064,0.0,0.056,0.001
31/07/2023,06:30:33,0.062,0.0,0.057,0.001
31/07/2023,06:31:34,0.053,0.0,0.058,0.001
31/07/2023,06:32:33,0.047,0.0,0.059,0.001
31/07/2023,06:33:33,0.043,0.0,0.06,0.001
31/07/2023,06:34:34,0.041,0.0,0.061,0.001
31/07/2023,06:35:33,0.044,0.0,0.061,0.0
31/07/2023,06:36:34,0.047,0.0,0.062,0.001
31/07/2023,06:37:34,0.050,0.0,0.063,0.001
31/07/2023,06:38:34,0.056,0.0,0.064,0.001
31/07/2023,06:39:33,0.066,0.0,0.065,0.001
31/07/2023,06:40:34,0.079,0.0,0.066,0.001
31/07/2023,06:41:34,0.087,0.0,0.067,0.001
31/07/2023,06:42:33,0.094,0.0,0.069,0.002
31/07/2023,06:43:33,0.099,0.0,0.07,0.001
31/07/2023,06:44:33,0.101,0.0,0.072,0.002
31/07/2023,06:45:34,0.106,0.0,0.074,0.002
31/07/2023,06:46:33,0.106,0.0,0.076,0.002
31/07/2023,06:47:34,0.097,0.0,0.077,0.001
31/07/2023,06:48:33,0.103,0.0,0.079,0.002
31/07/2023,06:49:33,0.102,0.0,0.081,0.002
31/07/2023,06:50:34,0.098,0.0,0.082,0.001
31/07/2023,06:51:33,0.099,0.0,0.084,0.002
31/07/2023,06:52:33,0.100,0.0,0.086,0.002
31/07/2023,06:53:33,0.102,0.0,0.087,0.001
31/07/2023,06:54:34,0.104,0.0,0.089,0.002
31/07/2023,06:55:34,0.106,0.0,0.091,0.002
31/07/2023,06:56:33,0.106,0.0,0.093,0.002
31/07/2023,06:57:33,0.102,0.0,0.094,0.001
31/07/2023,06:58:34,0.098,0.0,0.096,0.002
31/07/2023,06:59:34,0.094,0.0,0.098,0.002
31/07/2023,07:00:33,0.094,0.0,0.099,0.001
31/07/2023,07:01:33,0.096,0.0,0.101,0.002
31/07/2023,07:02:34,0.103,0.0,0.102,0.001
31/07/2023,07:03:34,0.107,0.0,0.104,0.002
31/07/2023,07:04:34,0.114,0.0,0.106,0.002
31/07/2023,07:05:34,0.124,0.0,0.108,0.002
31/07/2023,07:06:34,0.133,0.0,0.11,0.002
31/07/2023,07:07:33,0.140,0.0,0.112,0.002
31/07/2023,07:08:33,0.143,0.0,0.115,0.003
31/07/2023,07:09:34,0.143,0.0,0.117,0.002
31/07/2023,07:10:34,0.134,0.0,0.12,0.003
31/07/2023,07:11:33,0.117,0.0,0.122,0.002
31/07/2023,07:12:32,0.103,0.0,0.123,0.001
31/07/2023,07:13:34,0.100,0.0,0.125,0.002
31/07/2023,07:14:34,0.095,0.0,0.127,0.002
31/07/2023,07:15:34,0.099,0.0,0.128,0.001
31/07/2023,07:16:34,0.121,0.0,0.13,0.002
31/07/2023,07:17:33,0.145,0.0,0.132,0.002
31/07/2023,07:18:34,0.163,0.0,0.135,0.003
31/07/2023,07:19:33,0.180,0.0,0.138,0.003
31/07/2023,07:20:34,0.194,0.0,0.141,0.003
31/07/2023,07:21:33,0.202,0.0,0.144,0.003
31/07/2023,07:22:34,0.207,0.0,0.148,0.004
31/07/2023,07:23:33,0.208,0.0,0.151,0.003
31/07/2023,07:24:34,0.209,0.0,0.155,0.004
31/07/2023,07:25:34,0.207,0.0,0.158,0.003
31/07/2023,07:26:34,0.196,0.0,0.161,0.003
31/07/2023,07:27:33,0.191,0.0,0.165,0.004
31/07/2023,07:28:34,0.193,0.0,0.168,0.003
31/07/2023,07:29:34,0.193,0.0,0.171,0.003
31/07/2023,07:30:33,0.188,0.0,0.174,0.003
31/07/2023,07:31:34,0.184,0.0,0.177,0.003
31/07/2023,07:32:34,0.206,0.0,0.181,0.004
31/07/2023,07:33:34,0.197,0.0,0.184,0.003
31/07/2023,07:34:34,0.164,0.0,0.187,0.003
31/07/2023,07:35:34,0.166,0.0,0.19,0.003
31/07/2023,07:36:33,0.184,0.0,0.193,0.003
31/07/2023,07:37:34,0.179,0.0,0.196,0.003
31/07/2023,07:38:33,0.195,0.0,0.199,0.003
31/07/2023,07:39:34,0.209,0.0,0.202,0.003
31/07/2023,07:40:34,0.192,0.0,0.206,0.004
31/07/2023,07:41:33,0.178,0.0,0.209,0.003
31/07/2023,07:42:34,0.205,0.0,0.212,0.003
31/07/2023,07:43:34,0.230,1.0,0.215,0.003
31/07/2023,07:44:36,0.231,1.0,0.219,0.004
31/07/2023,07:45:35,0.206,0.0,0.223,0.004
31/07/2023,07:46:33,0.186,0.0,0.226,0.003
31/07/2023,07:47:34,0.149,0.0,0.229,0.003
31/07/2023,07:48:33,0.147,0.0,0.231,0.002
31/07/2023,07:49:34,0.142,0.0,0.234,0.003
31/07/2023,07:50:34,0.157,0.0,0.236,0.002
31/07/2023,07:51:33,0.159,0.0,0.239,0.003
31/07/2023,07:52:34,0.163,0.0,0.242,0.003
31/07/2023,07:53:33,0.154,0.0,0.244,0.002
31/07/2023,07:54:34,0.157,0.0,0.247,0.003
31/07/2023,07:55:34,0.153,0.0,0.249,0.002
31/07/2023,07:56:34,0.140,0.0,0.252,0.003
31/07/2023,07:57:33,0.153,0.0,0.254,0.002
31/07/2023,07:58:33,0.146,0.0,0.257,0.003
31/07/2023,07:59:34,0.142,0.0,0.259,0.002
31/07/2023,08:00:33,0.143,0.0,0.262,0.003
31/07/2023,08:01:33,0.137,0.0,0.264,0.002
31/07/2023,08:02:34,0.127,0.0,0.266,0.002
31/07/2023,08:03:33,0.150,0.0,0.268,0.002
31/07/2023,08:04:34,0.145,0.0,0.271,0.003
31/07/2023,08:05:34,0.137,0.0,0.273,0.002
31/07/2023,08:06:33,0.144,0.0,0.275,0.002
31/07/2023,08:07:34,0.153,0.0,0.278,0.003
31/07/2023,08:08:33,0.166,0.0,0.281,0.003
31/07/2023,08:09:34,0.172,0.0,0.283,0.002
31/07/2023,08:10:34,0.195,0.0,0.287,0.004
31/07/2023,08:11:33,0.205,0.0,0.29,0.003
31/07/2023,08:12:34,0.192,0.0,0.293,0.003
31/07/2023,08:13:34,0.196,0.0,0.296,0.003
31/07/2023,08:14:34,0.202,0.0,0.3,0.004
31/07/2023,08:15:33,0.198,0.0,0.303,0.003
31/07/2023,08:16:34,0.207,0.0,0.306,0.003
31/07/2023,08:17:34,0.205,0.0,0.31,0.004
31/07/2023,08:18:34,0.236,1.0,0.314,0.004
31/07/2023,08:19:34,0.261,1.0,0.318,0.004
31/07/2023,08:20:34,0.268,1.0,0.322,0.004
31/07/2023,08:21:34,0.267,1.0,0.327,0.005
31/07/2023,08:22:33,0.266,1.0,0.331,0.004
31/07/2023,08:23:34,0.270,1.0,0.336,0.005
31/07/2023,08:24:34,0.276,1.0,0.34,0.004
31/07/2023,08:25:33,0.284,1.0,0.345,0.005
31/07/2023,08:26:34,0.291,1.0,0.349,0.004
31/07/2023,08:27:34,0.293,1.0,0.354,0.005
31/07/2023,08:28:33,0.295,1.0,0.359,0.005
31/07/2023,08:29:34,0.296,1.0,0.364,0.005
31/07/2023,08:30:34,0.296,1.0,0.369,0.005
31/07/2023,08:31:34,0.296,1.0,0.374,0.005
31/07/2023,08:32:33,0.295,1.0,0.379,0.005
31/07/2023,08:33:34,0.290,1.0,0.384,0.005
31/07/2023,08:34:34,0.280,1.0,0.389,0.005
31/07/2023,08:35:34,0.278,1.0,0.393,0.004
31/07/2023,08:36:33,0.286,1.0,0.398,0.005
31/07/2023,08:37:34,0.299,1.0,0.403,0.005
31/07/2023,08:38:33,0.308,1.0,0.408,0.005
31/07/2023,08:39:34,0.318,1.0,0.413,0.005
31/07/2023,08:40:34,0.328,1.0,0.419,0.006
31/07/2023,08:41:34,0.332,1.0,0.424,0.005
31/07/2023,08:42:34,0.332,1.0,0.43,0.006
31/07/2023,08:43:33,0.331,1.0,0.435,0.005
31/07/2023,08:44:33,0.335,1.0,0.441,0.006
31/07/2023,08:45:34,0.344,1.0,0.446,0.005
31/07/2023,08:46:34,0.356,1.0,0.452,0.006
31/07/2023,08:47:34,0.392,1.0,0.458,0.006
31/07/2023,08:48:34,0.433,1.0,0.465,0.007
31/07/2023,08:49:34,0.463,1.0,0.473,0.008
31/07/2023,08:50:34,0.494,1.0,0.481,0.008
31/07/2023,08:51:34,0.519,1.0,0.489,0.008
31/07/2023,08:52:34,0.544,1.0,0.498,0.009
31/07/2023,08:53:34,0.581,1.0,0.507,0.009
31/07/2023,08:54:34,0.604,1.0,0.517,0.01
31/07/2023,08:55:34,0.624,1.0,0.527,0.01
31/07/2023,08:56:34,0.629,1.0,0.538,0.011
31/07/2023,08:57:33,0.619,1.0,0.548,0.01
31/07/2023,08:58:34,0.597,1.0,0.558,0.01
31/07/2023,08:59:35,0.583,1.0,0.569,0.011
31/07/2023,09:00:34,0.578,1.0,0.578,0.009
31/07/2023,09:01:34,0.579,1.0,0.588,0.01
31/07/2023,09:02:33,0.592,1.0,0.597,0.009
31/07/2023,09:03:34,0.618,1.0,0.607,0.01
31/07/2023,09:04:34,0.647,1.0,0.618,0.011
31/07/2023,09:05:34,0.672,2.0,0.629,0.011
31/07/2023,09:06:34,0.702,2.0,0.64,0.011
31/07/2023,09:07:33,0.738,2.0,0.652,0.012
31/07/2023,09:08:34,0.769,2.0,0.665,0.013
31/07/2023,09:09:37,0.779,2.0,0.678,0.013
31/07/2023,09:10:35,0.781,2.0,0.691,0.013
31/07/2023,09:11:34,0.773,2.0,0.704,0.013
31/07/2023,09:12:33,0.780,2.0,0.717,0.013
31/07/2023,09:13:34,0.755,2.0,0.73,0.013
31/07/2023,09:14:34,0.699,2.0,0.742,0.012
31/07/2023,09:15:34,0.645,1.0,0.753,0.011
31/07/2023,09:16:33,0.589,1.0,0.763,0.01
31/07/2023,09:17:34,0.557,1.0,0.773,0.01
31/07/2023,09:18:34,0.539,1.0,0.782,0.009
31/07/2023,09:19:34,0.526,1.0,0.791,0.009
31/07/2023,09:20:34,0.527,1.0,0.799,0.008
31/07/2023,09:21:34,0.534,1.0,0.808,0.009
31/07/2023,09:22:34,0.546,1.0,0.817,0.009
31/07/2023,09:23:34,0.568,1.0,0.826,0.009
31/07/2023,09:24:34,0.592,1.0,0.836,0.01
31/07/2023,09:25:34,0.623,1.0,0.846,0.01
31/07/2023,09:26:34,0.649,1.0,0.857,0.011
31/07/2023,09:27:34,0.675,2.0,0.868,0.011
31/07/2023,09:28:34,0.698,2.0,0.879,0.011
31/07/2023,09:29:34,0.698,2.0,0.891,0.012
31/07/2023,09:30:34,0.660,2.0,0.902,0.011
31/07/2023,09:31:33,0.667,2.0,0.913,0.011
31/07/2023,09:32:34,0.725,2.0,0.925,0.012
31/07/2023,09:33:34,0.754,2.0,0.937,0.012
31/07/2023,09:34:36,0.726,2.0,0.95,0.013
31/07/2023,09:35:33,0.682,2.0,0.962,0.012
31/07/2023,09:36:34,0.628,1.0,0.972,0.01
31/07/2023,09:37:34,0.599,1.0,0.983,0.011
31/07/2023,09:38:34,0.574,1.0,0.992,0.009
31/07/2023,09:39:34,0.518,1.0,1.001,0.009
31/07/2023,09:40:34,0.541,1.0,1.01,0.009
31/07/2023,09:41:33,0.581,1.0,1.02,0.01
31/07/2023,09:42:34,0.585,1.0,1.029,0.009
31/07/2023,09:43:34,0.519,1.0,1.039,0.01
31/07/2023,09:44:34,0.529,1.0,1.047,0.008
31/07/2023,09:45:34,0.571,1.0,1.056,0.009
31/07/2023,09:46:34,0.586,1.0,1.066,0.01
31/07/2023,09:47:34,0.543,1.0,1.076,0.01
31/07/2023,09:48:34,0.436,1.0,1.084,0.008
31/07/2023,09:49:34,0.399,1.0,1.091,0.007
31/07/2023,09:50:34,0.376,1.0,1.097,0.006
31/07/2023,09:51:34,0.337,1.0,1.103,0.006
31/07/2023,09:52:33,0.347,1.0,1.109,0.006
31/07/2023,09:53:34,0.434,1.0,1.115,0.006
31/07/2023,09:54:34,0.535,1.0,1.123,0.008